Weather History for Clinton, IA

Change the Weather History Date:

Thursday, January 15, 2015

  Actual Average Record
Temperature  
Mean Temperature 26 °F -  
Max Temperature 35 °F 28 °F 56 °F (1953)
Min Temperature 17 °F 10 °F -29 °F (2009)
Degree Days  
Heating Degree Days 39    
Moisture  
Dew Point 20 °F    
Average Humidity 80    
Maximum Humidity 93    
Minimum Humidity 65    
Precipitation  
Precipitation 0.00 in - - ()
Sea Level Pressure  
Sea Level Pressure 30.08 in    
Wind  
Wind Speed 8 mph (WSW)    
Max Wind Speed 15 mph    
Max Gust Speed -    
Visibility 9 miles    
Events      
Averages and records for this station are not official NWS values.
T = Trace of Precipitation, MM = Missing Value Source: NWS Daily Summary

Daily Weather History Graph

Daily Weather History Graph

Search for Another Location

Airport:

Trip Planner

Search our weather history database for the weather conditions in past years. The results will help you decide how hot, cold, wet, or windy it might be!

Date:

Astronomy

Jan. 15, 2015 Rise Set
Actual Time 7:26 AM CST 4:55 PM CST
Civil Twilight 6:55 AM CST 5:26 PM CST
Nautical Twilight 6:21 AM CST 6:00 PM CST
Astronomical Twilight 5:47 AM CST 6:33 PM CST
Moon 2:18 AM CST (1/15) 12:48 PM CST (1/15)
Length of Visible Light 10h 30m
Length of Day
9h 28m
Waning Crescent, 27% of the Moon is Illuminated
Jan 15
Waning Crescent
Jan 20
New
Jan 26
First Quarter
Feb 3
Full
Feb 11
Last Quarter

Hourly Weather History & Observations

Time (CST) Temp. Windchill Dew Point Humidity Pressure Visibility Wind Dir Wind Speed Gust Speed Precip Events Conditions
12:15 AM 17.6 °F 9.3 °F 12.2 °F 79% 30.17 in 9.0 mi SSE 5.8 mph - N/A   Clear
12:35 AM 17.6 °F 9.3 °F 12.2 °F 79% 30.16 in 10.0 mi SSE 5.8 mph - N/A   Clear
12:55 AM 17.6 °F 10.7 °F 12.2 °F 79% 30.15 in 10.0 mi SSE 4.6 mph - N/A   Clear
1:15 AM 17.6 °F 12.3 °F 12.2 °F 79% 30.15 in 10.0 mi South 3.5 mph - N/A   Partly Cloudy
1:35 AM 17.6 °F 10.7 °F 12.2 °F 79% 30.14 in 10.0 mi South 4.6 mph - N/A   Partly Cloudy
1:55 AM 17.6 °F 12.3 °F 12.2 °F 79% 30.14 in 10.0 mi South 3.5 mph - N/A   Clear
2:15 AM 17.6 °F 12.3 °F 12.2 °F 79% 30.14 in 9.0 mi SSW 3.5 mph - N/A   Partly Cloudy
2:35 AM 17.6 °F 12.3 °F 12.2 °F 79% 30.13 in 9.0 mi South 3.5 mph - N/A   Partly Cloudy
2:55 AM 17.6 °F 9.3 °F 14.0 °F 86% 30.13 in 9.0 mi SSW 5.8 mph - N/A   Clear
3:15 AM 17.6 °F 10.7 °F 14.0 °F 86% 30.12 in 8.0 mi SSW 4.6 mph - N/A   Partly Cloudy
3:35 AM 17.6 °F 9.3 °F 14.0 °F 86% 30.12 in 8.0 mi SW 5.8 mph - N/A   Partly Cloudy
3:55 AM 19.4 °F 11.5 °F 14.0 °F 80% 30.11 in 8.0 mi SW 5.8 mph - N/A   Clear
4:15 AM 19.4 °F 11.5 °F 15.8 °F 86% 30.10 in 8.0 mi SW 5.8 mph - N/A   Clear
4:35 AM 19.4 °F 10.4 °F 14.0 °F 80% 30.11 in 7.0 mi WSW 6.9 mph - N/A   Clear
4:55 AM 19.4 °F 10.4 °F 14.0 °F 80% 30.10 in 7.0 mi SW 6.9 mph - N/A   Clear
5:15 AM 19.4 °F 9.5 °F 14.0 °F 80% 30.10 in 7.0 mi SW 8.1 mph - N/A   Clear
5:35 AM 19.4 °F 10.4 °F 15.8 °F 86% 30.10 in 7.0 mi SW 6.9 mph - N/A   Clear
5:55 AM 19.4 °F 11.5 °F 15.8 °F 86% 30.10 in 7.0 mi SW 5.8 mph - N/A   Clear
6:15 AM 19.4 °F 12.8 °F 15.8 °F 86% 30.10 in 7.0 mi SW 4.6 mph - N/A   Clear
6:35 AM 19.4 °F 10.4 °F 15.8 °F 86% 30.10 in 7.0 mi SSW 6.9 mph - N/A   Clear
6:55 AM 19.4 °F 9.5 °F 15.8 °F 86% 30.08 in 7.0 mi SW 8.1 mph - N/A   Clear
7:15 AM 19.4 °F 11.5 °F 15.8 °F 86% 30.08 in 5.0 mi SSW 5.8 mph - N/A   Clear
7:35 AM 19.4 °F 12.8 °F 15.8 °F 86% 30.08 in 5.0 mi SSW 4.6 mph - N/A   Clear
7:55 AM 19.4 °F 10.4 °F 15.8 °F 86% 30.08 in 5.0 mi SW 6.9 mph - N/A   Partly Cloudy
8:15 AM 19.4 °F 9.5 °F 15.8 °F 86% 30.08 in 5.0 mi SW 8.1 mph - N/A   Clear
8:35 AM 19.4 °F 11.5 °F 15.8 °F 86% 30.08 in 5.0 mi SW 5.8 mph - N/A   Clear
8:55 AM 21.2 °F 16.4 °F 15.8 °F 80% 30.09 in 5.0 mi WSW 3.5 mph - N/A   Partly Cloudy
9:15 AM 24.8 °F 16.1 °F 17.6 °F 74% 30.08 in 7.0 mi WSW 8.1 mph - N/A   Scattered Clouds
9:35 AM 26.6 °F 16.2 °F 19.4 °F 74% 30.08 in 7.0 mi WSW 11.5 mph - N/A   Mostly Cloudy
9:55 AM 26.6 °F 14.7 °F 19.4 °F 74% 30.07 in 8.0 mi WSW 15.0 mph - N/A   Overcast
10:15 AM 26.6 °F 16.8 °F 21.2 °F 80% 30.08 in 8.0 mi WSW 10.4 mph - N/A   Mostly Cloudy
10:35 AM 28.4 °F 17.5 °F 21.2 °F 74% 30.07 in 9.0 mi WSW 13.8 mph - N/A   Overcast
10:55 AM 28.4 °F 18.5 °F 21.2 °F 74% 30.08 in 9.0 mi West 11.5 mph - N/A   Mostly Cloudy
11:15 AM 30.2 °F 21.3 °F 21.2 °F 69% 30.06 in 10.0 mi West 10.4 mph - N/A   Partly Cloudy
11:35 AM 30.2 °F 21.3 °F 23.0 °F 75% 30.05 in 10.0 mi WSW 10.4 mph - N/A   Clear
11:55 AM 32.0 °F 23.0 °F 23.0 °F 69% 30.05 in 10.0 mi WSW 11.5 mph - N/A   Clear
12:15 PM 32.0 °F 23.6 °F 23.0 °F 69% 30.03 in 10.0 mi West 10.4 mph - N/A   Clear
12:35 PM 32.0 °F 23.0 °F 23.0 °F 69% 30.03 in 10.0 mi West 11.5 mph - N/A   Clear
12:55 PM 33.8 °F 24.3 °F 23.0 °F 65% 30.02 in 10.0 mi West 13.8 mph - N/A   Clear
1:15 PM 33.8 °F 23.9 °F 24.8 °F 70% 30.01 in 10.0 mi West 15.0 mph - N/A   Clear
1:35 PM 33.8 °F 23.9 °F 24.8 °F 70% 30.01 in 10.0 mi West 15.0 mph - N/A   Clear
1:55 PM 33.8 °F 25.8 °F 24.8 °F 70% 30.01 in 10.0 mi WSW 10.4 mph - N/A   Clear
2:15 PM 33.8 °F 25.3 °F 24.8 °F 70% 30.01 in 10.0 mi WSW 11.5 mph - N/A   Clear
2:35 PM 33.8 °F 24.8 °F 26.6 °F 75% 30.01 in 10.0 mi WSW 12.7 mph - N/A   Clear
2:55 PM 35.6 °F 27.1 °F 24.8 °F 65% 30.01 in 10.0 mi WSW 12.7 mph - N/A   Clear
3:15 PM 35.6 °F 26.2 °F 26.6 °F 70% 30.01 in 10.0 mi West 15.0 mph - N/A   Clear
3:35 PM 33.8 °F 24.3 °F 26.6 °F 75% 30.01 in 10.0 mi West 13.8 mph - N/A   Clear
3:55 PM 33.8 °F 25.3 °F 26.6 °F 75% 30.02 in 10.0 mi West 11.5 mph - N/A   Clear
4:15 PM 33.8 °F 24.8 °F 26.6 °F 75% 30.02 in 10.0 mi West 12.7 mph - N/A   Clear
4:35 PM 33.8 °F 24.8 °F 26.6 °F 75% 30.03 in 10.0 mi West 12.7 mph - N/A   Clear
4:55 PM 32.0 °F 23.0 °F 26.6 °F 80% 30.05 in 10.0 mi West 11.5 mph - N/A   Clear
5:15 PM 30.2 °F 21.3 °F 24.8 °F 80% 30.05 in 10.0 mi West 10.4 mph - N/A   Clear
5:35 PM 28.4 °F 19.7 °F 24.8 °F 86% 30.05 in 10.0 mi West 9.2 mph - N/A   Clear
5:55 PM 28.4 °F 19.7 °F 24.8 °F 86% 30.04 in 10.0 mi West 9.2 mph - N/A   Clear
6:15 PM 28.4 °F 18.5 °F 23.0 °F 80% 30.06 in 10.0 mi West 11.5 mph - N/A   Clear
6:35 PM 28.4 °F 18.0 °F 24.8 °F 86% 30.06 in 10.0 mi West 12.7 mph - N/A   Clear
6:55 PM 28.4 °F 18.5 °F 24.8 °F 86% 30.07 in 10.0 mi West 11.5 mph - N/A   Clear
7:15 PM 28.4 °F 18.5 °F 23.0 °F 80% 30.08 in 10.0 mi West 11.5 mph - N/A   Clear
7:35 PM 26.6 °F 15.7 °F 23.0 °F 86% 30.08 in 10.0 mi WNW 12.7 mph - N/A   Clear
7:55 PM 26.6 °F 15.7 °F 23.0 °F 86% 30.08 in 10.0 mi West 12.7 mph - N/A   Clear
8:15 PM 26.6 °F 15.7 °F 23.0 °F 86% 30.09 in 10.0 mi West 12.7 mph - N/A   Clear
8:35 PM 26.6 °F 16.2 °F 21.2 °F 80% 30.09 in 10.0 mi West 11.5 mph - N/A   Clear
8:55 PM 24.8 °F 14.0 °F 21.2 °F 86% 30.09 in 10.0 mi West 11.5 mph - N/A   Clear
9:15 PM 26.6 °F 16.2 °F 21.2 °F 80% 30.10 in 10.0 mi WNW 11.5 mph - N/A   Clear
9:35 PM 24.8 °F 14.6 °F 21.2 °F 86% 30.11 in 10.0 mi WNW 10.4 mph - N/A   Clear
9:55 PM 24.8 °F 14.0 °F 21.2 °F 86% 30.10 in 10.0 mi West 11.5 mph - N/A   Clear
10:15 PM 24.8 °F 13.4 °F 21.2 °F 86% 30.09 in 10.0 mi WNW 12.7 mph - N/A   Clear
10:35 PM 24.8 °F 14.6 °F 21.2 °F 86% 30.10 in 10.0 mi WNW 10.4 mph - N/A   Clear
10:55 PM 24.8 °F 16.1 °F 21.2 °F 86% 30.10 in 10.0 mi West 8.1 mph - N/A   Clear
11:15 PM 23.0 °F 13.9 °F 19.4 °F 86% 30.10 in 9.0 mi WSW 8.1 mph - N/A   Clear
11:35 PM 23.0 °F 15.8 °F 19.4 °F 86% 30.12 in 8.0 mi WNW 5.8 mph - N/A   Clear
11:55 PM 21.2 °F 10.9 °F 19.4 °F 93% 30.12 in 8.0 mi WNW 9.2 mph - N/A   Clear